Location: Bern�tre
(50.1974°N, 2.0915°E)
Time: 21:57:12
(UTC+00:00)

NOSS 3-2 (A) - Pass Details

Date: 18 September 2020
Orbit: 795 x 1413 km, 63.4° (Epoch: 28 October)

Event Time Altitude Azimuth Distance (km) Brightness Sun altitude
Rises 19:59:00 0° 316° (NW) 3,928 8.0 -19.4°
Reaches altitude 10° 20:01:33 10° 314° (NW) 3,051 7.2 -19.8°
Maximum altitude 20:08:55 70° 233° (SW) 1,343 4.2 -20.8°
Enters shadow 20:13:58 26° 157° (SSE) 2,363 5.0 -21.5°
